SCP
0 0 0 -0 0 0 0 0 0 0 0 0 0 1 2 4 5 5 4 4 4 4 4 3 3 2 2 2 3 3 3 2 2 1 1 1 1 1 1 1 1 1 0 0
0 0 0 -0 -0 0 0 0 0 0 -0 -0 1 2 3 3 4 5 5 4 4 3 2 2 2 1 1 1 2 1 1 1 0 0 0 0 0 0 0 0 1 1 1 1
0 0 0 0 -0 0 -0 0 0 0 0 0 0 2 3 4 4 5 2 1 3 3 2 1 1 1 1 1 1 1 1 1 1 1 0 1 1 1 1 0 0 1 1 1
0 0 0 0 0 0 0 0 0 0 0 0 0 2 3 4 4 4 2 1 2 3 2 1 1 1 1 0 1 1 1 1 1 1 1 1 1 1 1 1 1 0 0 0
0 0 0 0 0 0 0 0 0 0 0 0 0 4 4 3 2 4 2 1 1 2 1 1 1 1 0 0 0 0 0 0 1 1 1 1 0 0 0 0 0 0 0 0
0 0 0 0 0 0 -0 0 0 0 0 0 0 4 4 2 4 4 3 2 2 2 1 1 1 0 0 0 0 0 0 0 0 0 0 0 0 0 0 0 0 0 0 0
0 0 0 0 0 0 0 0 -0 0 0 0 0 0 3 5 6 5 3 2 2 1 1 1 1 0 0 0 0 0 0 0 0 0 0 0 0 0 0 0 0 0 0 0
0 0 0 0 0 -0 0 0 -0 0 0 0 1 3 5 7 5 4 3 2 1 1 0 0 0 0 0 0 0 0 0 0 0 0 0 0 0 0 0 0 0 0 0 0
0 0 0 0 0 0 0 0 0 0 -0 0 4 5 7 7 6 4 3 1 0 0 0 0 0 0 0 0 0 0 0 0 0 0 0 0 0 0 0 0 0 0 0 0
0 0 0 0 -0 0 0 0 0 0 0 0 5 7 8 5 5 3 1 0 0 0 0 0 0 0 0 0 0 0 0 0 0 0 0 0 0 0 0 0 0 0 0 0
0 0 0 0 0 0 -0 0 0 0 0 0 0 1 8 6 3 1 0 0 0 0 0 0 0 0 0 0 0 0 0 0 0 0 0 0 0 0 0 0 0 0 0 0
-0 -0 -0 -0 0 0 -0 0 -0 -0 0 0 4 2 4 4 1 1 0 0 0 0 0 0 0 0 0 0 0 0 0 0 0 0 0 0 0 0 0 0 0 0 0 0
0 0 -0 -0 -0 0 0 0 0 -0 -0 0 1 0 2 1 0 0 0 0 0 0 0 0 0 0 0 0 0 0 0 0 0 0 0 0 0 0 0 0 0 0 0 0
0 0 0 -0 -0 0 0 0 -0 0 -0 0 0 0 0 2 0 0 0 0 0 0 0 0 0 0 0 0 0 0 0 0 0 0 0 0 0 0 0 0 0 0 0 0
0 0 0 0 0 0 0 0 0 0 0 0 0 0 0 1 0 0 0 0 0 0 0 0 0 0 0 0 0 0 0 0 0 0 0 0 0 0 0 0 -0 0 0 0
0 0 0 0 0 0 0 0 0 0 0 0 0 0 0 0 0 0 0 0 0 0 0 0 0 0 0 0 0 0 0 0 0 0 0 0 0 0 0 0 0 0 0 0
0 0 0 0 0 0 0 0 0 0 0 0 0 0 0 0 0 0 0 0 0 0 0 0 0 0 0 0 0 0 0 0 0 0 0 0 0 0 0 0 0 0 0 0
0 0 0 0 0 0 0 0 0 0 0 0 0 0 0 0 0 0 0 0 0 0 0 0 0 0 0 0 0 0 0 0 0 0 0 0 0 0 0 0 0 0 0 0
0 0 0 0 0 0 -0 0 0 0 0 0 0 -0 0 0 0 0 0 0 0 0 0 0 0 0 0 0 0 0 0 0 0 0 0 0 0 0 0 0 0 0 0 0
0 0 0 0 0 0 0 0 0 0 0 -0 0 0 0 0 0 0 0 0 0 0 0 0 0 0 0 0 0 0 0 0 0 -0 -0 0 0 0 0 0 0 0 0 0
-0 0 0 0 -0 0 0 0 0 -0 -0 0 0 0 0 0 0 0 0 0 0 0 0 0 0 0 0 0 0 0 0 -0 -0 -0 -0 -0 -0 -0 0 0 0 0 0 0
0 0 0 0 0 0 0 0 0 0 0 -0 -0 0 0 0 0 0 0 0 0 0 0 0 0 0 0 0 0 0 -0 -0 -0 -0 -0 -0 -0 -0 -0 0 0 0 0 0
-0 0 -0 0 -0 0 0 0 0 0 0 0 0 0 0 0 0 0 0 0 0 0 0 0 0 0 0 0 0 0 -0 -0 -0 -0 -0 -0 -0 -0 -0 -0 0 0 0 0
-0 -0 0 0 0 -0 0 0 0 0 0 0 0 0 0 0 0 0 0 0 0 0 0 0 0 0 0 0 0 0 0 -0 -0 -0 -0 -0 -0 -0 -0 -0 -0 0 0 0
0 0 0 0 -0 0 0 -0 0 -0 0 0 0 0 0 0 0 0 0 0 0 0 0 0 0 0 0 0 0 0 0 0 -0 -0 -0 -0 -0 -0 -0 -0 0 0 0 0
-0 -0 -0 -0 0 0 0 0 0 0 -0 0 0 0 0 0 0 0 0 0 0 0 0 0 0 0 0 -0 0 0 0 0 0 0 -0 -0 -0 -0 -0 -0 0 0 0 0
0 0 0 0 -0 0 0 0 0 0 0 0 0 0 0 0 0 0 0 0 0 0 0 0 0 -0 -0 0 0 0 0 0 0 0 0 0 -0 -0 -0 -0 -0 -0 0 0
Wind_Speed_500mb
11 15 23 23 17 28 20 19 16 15 14 20 26 32 37 56 46 41 39 32 37 36 29 21 16 15 19 18 30 39 53 49 38 34 29 31 30 27 27 27 31 33 36 38
13 15 25 33 34 30 31 27 14 16 21 16 35 52 52 61 55 50 44 41 37 31 25 17 12 12 16 18 21 29 37 41 42 38 34 31 35 38 35 37 36 32 39 40
14 11 15 30 11 20 15 10 25 20 23 15 16 40 57 66 64 59 55 46 41 33 23 18 15 16 16 13 17 25 29 33 37 35 38 34 28 33 37 47 50 47 48 47
9 11 32 6 9 15 17 24 18 10 13 5 38 61 69 77 69 66 57 48 43 36 27 23 23 21 16 15 18 20 20 23 25 29 25 27 32 33 32 33 34 38 40 37
5 13 25 16 14 18 20 27 17 15 16 15 48 55 45 74 73 75 64 49 43 41 34 27 23 20 16 16 15 16 19 19 18 16 13 12 16 17 19 21 25 31 32 31
14 14 27 8 13 48 13 13 12 24 22 16 48 18 16 71 70 73 67 59 58 51 40 33 25 21 20 17 11 6 6 5 7 4 6 8 11 13 16 21 23 29 22 17
15 25 18 17 36 50 15 16 9 37 50 51 18 30 89 78 70 78 81 71 60 56 50 40 31 33 36 28 21 18 13 6 4 1 4 5 9 11 11 10 16 22 22 9
5 6 25 48 22 7 20 42 25 50 51 71 19 58 90 81 85 87 86 77 68 64 49 41 39 37 33 27 24 18 20 16 9 3 3 7 12 9 6 10 14 16 17 21
7 7 38 50 34 49 44 44 51 61 47 45 47 80 91 93 88 87 86 75 68 64 58 47 36 32 30 25 18 14 10 7 4 5 8 17 17 12 13 16 16 17 15 16
5 10 30 50 29 43 42 61 59 50 57 30 23 78 82 90 83 86 79 80 70 60 55 47 36 30 24 19 17 13 13 17 17 14 9 14 20 26 21 24 24 21 15 11
9 8 35 22 46 22 55 64 64 47 47 44 40 27 67 83 82 79 78 76 65 60 54 46 36 27 21 23 23 23 20 13 12 8 14 14 15 14 24 31 26 23 21 21
8 16 14 30 21 24 37 51 51 52 59 44 47 29 38 64 86 87 82 71 64 54 42 32 29 26 23 23 26 22 18 7 13 9 10 11 5 13 27 27 29 21 19 13
11 25 20 30 36 22 31 24 33 48 46 52 32 39 57 52 72 73 73 68 60 50 39 34 28 22 17 19 21 18 18 6 8 7 3 6 12 17 23 24 29 25 17 16
38 24 25 40 38 27 26 28 22 15 7 4 16 53 66 65 41 74 84 76 58 48 40 31 24 20 14 16 17 17 4 7 10 12 13 7 7 11 20 29 34 33 23 20
32 46 45 40 39 40 44 44 31 19 7 18 32 33 38 60 74 62 62 68 63 49 46 38 27 17 16 14 20 13 2 6 6 7 5 6 9 15 24 31 39 42 31 25
41 33 29 26 36 40 41 51 40 21 17 23 40 49 26 54 75 73 76 73 71 60 48 40 23 14 14 21 16 15 6 8 3 3 11 15 20 25 31 37 40 36 27 31
24 19 13 20 32 23 21 19 27 27 21 28 38 44 64 76 78 76 64 45 41 45 38 31 23 17 16 20 21 12 11 7 11 17 20 21 24 28 24 22 25 27 26 29
28 40 22 23 19 26 15 9 26 18 30 16 37 51 64 60 50 46 51 52 44 44 37 31 21 16 17 22 19 12 14 16 15 13 16 20 25 28 28 26 25 29 32 33
18 6 5 11 21 23 20 12 16 35 35 34 59 63 55 55 60 55 50 47 49 49 37 20 20 24 32 23 18 10 8 5 12 19 24 26 28 29 27 26 27 30 32 33
17 16 21 11 23 24 23 30 42 45 36 43 55 52 48 54 58 56 55 58 49 38 38 27 25 32 32 16 3 5 15 25 30 31 33 33 31 29 28 26 26 25 26 28
20 26 34 28 28 30 48 51 51 51 45 43 48 53 52 48 59 56 54 52 41 29 28 27 27 37 30 23 5 13 23 34 41 47 46 41 36 31 29 28 29 32 29 26
12 4 12 41 46 51 44 45 54 53 47 49 46 43 51 53 53 49 39 35 37 36 37 32 27 28 30 16 3 19 29 35 42 48 50 53 51 40 33 32 33 32 32 28
23 34 47 44 39 34 29 37 38 42 44 41 41 43 45 49 47 49 50 41 38 37 35 30 24 26 29 14 5 11 24 33 39 44 50 55 57 52 36 33 32 29 27 23
43 43 35 30 37 38 31 29 28 29 30 32 32 36 43 54 41 33 34 34 35 42 40 35 22 18 33 27 18 3 10 23 29 39 47 51 55 60 53 35 28 26 24 22
15 11 13 22 21 26 22 21 26 29 31 29 30 34 36 49 46 40 38 37 46 43 32 38 24 17 35 23 30 17 7 8 20 27 34 46 52 53 55 47 30 23 18 17
24 22 27 25 15 8 9 15 15 15 21 24 26 27 32 44 36 37 42 39 42 39 28 26 27 21 24 25 36 29 18 5 13 21 25 31 41 50 56 51 39 24 21 23
33 30 27 24 12 10 14 15 24 18 15 25 26 24 33 38 40 40 39 35 38 37 21 19 16 17 29 16 32 40 22 8 7 13 19 27 31 41 50 52 45 32 22 24
Wind_Direction_500mb
245 279 276 278 251 211 202 217 202 252 198 205 180 160 146 138 136 136 138 150 143 150 157 164 157 154 176 165 147 168 193 192 196 203 217 243 247 253 253 259 263 264 271 282
257 279 286 290 286 272 228 217 241 241 264 179 186 146 142 151 157 149 155 162 157 164 169 170 160 194 218 210 187 175 173 179 195 209 220 228 236 249 256 261 281 282 283 286
242 259 301 277 245 270 286 241 204 210 236 181 182 155 157 158 162 156 164 162 161 169 175 180 196 199 192 187 182 196 193 195 209 222 235 235 237 246 259 274 290 291 287 289
273 190 232 267 292 284 281 281 286 267 222 218 167 167 163 167 164 164 170 167 161 172 182 175 176 185 188 215 196 188 194 207 216 228 245 258 268 281 285 292 300 304 303 298
277 268 253 248 256 258 268 282 290 273 242 174 148 151 163 170 172 171 175 179 177 180 179 177 187 188 190 166 184 205 218 218 215 221 241 270 289 289 300 306 314 315 314 307
279 274 270 273 276 256 321 275 24 18 333 228 151 148 182 172 176 172 174 177 166 164 168 172 180 178 167 165 183 184 141 169 170 197 236 269 292 304 315 327 336 336 334 326
307 282 282 329 302 315 298 263 334 2 346 322 191 179 172 169 162 167 169 167 162 159 162 162 168 164 173 177 187 192 192 170 197 276 269 327 315 314 324 327 340 339 353 353
195 208 260 11 22 8 314 311 335 297 315 329 221 170 159 158 158 159 159 159 158 151 149 153 167 185 188 191 185 180 177 182 188 182 324 357 348 341 358 321 325 336 1 9
167 274 313 307 305 323 349 336 349 2 335 313 153 149 152 150 151 159 160 158 159 158 155 160 165 183 190 186 181 173 178 182 159 106 10 12 11 355 336 341 355 5 13 25
48 349 276 303 323 296 337 342 329 334 12 351 149 150 151 154 153 152 154 153 157 161 166 165 178 190 189 167 149 139 106 92 83 57 32 21 356 354 350 350 350 356 2 354
211 314 320 337 6 331 296 284 327 317 353 15 332 187 153 151 147 154 153 155 163 164 164 167 178 173 161 150 139 124 105 91 100 53 16 7 8 360 347 348 344 357 1 358
245 203 215 269 306 329 251 250 286 328 320 346 338 257 181 139 154 153 152 155 155 156 158 164 166 161 154 153 158 139 137 129 116 58 81 22 2 349 331 341 342 358 3 353
203 229 257 269 264 300 288 309 295 304 302 323 303 210 171 175 159 153 154 154 152 154 149 150 152 149 150 155 157 145 135 132 215 225 177 345 325 339 330 324 331 324 342 339
276 225 234 244 267 265 278 296 308 283 270 63 309 209 176 167 161 158 156 153 154 158 155 151 147 137 133 147 143 131 93 215 254 264 240 304 356 330 308 316 325 332 334 329
264 252 248 272 281 279 279 279 273 284 257 156 88 75 148 158 167 166 154 154 150 150 152 146 149 154 165 146 137 131 313 293 321 18 71 287 282 289 294 304 311 319 315 318
267 269 247 261 283 291 296 262 251 243 228 227 168 154 155 172 157 155 150 147 147 153 157 151 147 166 168 142 118 105 89 76 76 186 236 269 281 290 299 306 312 319 329 319
293 291 287 316 311 308 301 286 270 248 224 152 153 163 171 169 158 148 148 155 170 161 153 149 147 173 151 158 135 110 154 191 240 260 280 297 306 305 307 310 323 325 324 318
277 288 273 271 276 270 283 251 176 201 204 173 161 176 171 166 161 150 141 142 147 147 158 156 145 149 134 130 146 175 239 258 283 308 329 338 335 329 324 326 320 320 318 316
307 278 276 252 259 260 287 228 229 209 191 169 172 177 173 175 157 149 154 160 157 155 154 167 164 146 140 136 156 200 242 317 4 8 6 6 359 354 350 344 337 328 323 320
279 298 323 291 244 257 250 198 164 163 174 194 185 170 171 164 159 161 168 169 171 167 154 168 154 136 135 131 206 89 70 55 44 33 26 18 9 3 358 349 339 330 327 324
283 274 287 230 196 197 152 155 153 151 149 150 159 166 162 162 165 163 164 161 155 158 165 171 147 134 126 154 161 58 67 52 46 42 36 25 16 9 6 3 355 343 336 332
237 247 91 175 179 166 152 147 153 148 150 147 157 162 162 164 164 167 169 167 164 172 164 147 138 146 151 174 53 52 54 49 45 41 37 31 24 17 11 4 0 351 345 341
109 95 93 119 138 147 116 136 146 151 151 152 152 163 171 168 171 165 161 171 170 156 159 155 172 165 163 168 129 56 40 40 37 36 35 31 25 21 15 7 2 3 6 5
109 108 81 85 114 131 130 130 135 141 146 159 168 167 171 172 165 173 172 159 165 170 171 178 175 154 169 174 188 224 18 39 31 27 32 30 25 22 18 14 6 2 3 7
149 95 74 82 98 104 114 131 148 157 157 161 168 166 168 175 176 161 163 158 170 179 175 188 201 204 188 169 205 229 256 29 27 21 26 28 25 21 17 14 14 8 358 345
104 136 138 132 133 146 149 134 129 162 175 176 176 180 183 185 180 173 172 175 178 193 193 194 199 195 191 183 214 226 235 298 10 10 11 13 22 19 18 13 11 15 358 346
77 87 104 123 165 109 125 142 168 164 167 174 170 178 183 181 171 172 174 187 185 177 173 192 185 176 170 188 218 225 232 241 337 4 352 356 9 19 22 27 30 33 14 13
Wind_Speed_850mb
11 15 23 23 17 28 20 19 16 15 14 20 26 32 37 56 46 41 39 32 37 36 29 21 16 15 19 18 30 39 53 49 38 34 29 31 30 27 27 27 31 33 36 38
13 15 25 33 34 30 31 27 14 16 21 16 35 52 52 61 55 50 44 41 37 31 25 17 12 12 16 18 21 29 37 41 42 38 34 31 35 38 35 37 36 32 39 40
14 11 15 30 11 20 15 10 25 20 23 15 16 40 57 66 64 59 55 46 41 33 23 18 15 16 16 13 17 25 29 33 37 35 38 34 28 33 37 47 50 47 48 47
9 11 32 6 9 15 17 24 18 10 13 5 38 61 69 77 69 66 57 48 43 36 27 23 23 21 16 15 18 20 20 23 25 29 25 27 32 33 32 33 34 38 40 37
5 13 25 16 14 18 20 27 17 15 16 15 48 55 45 74 73 75 64 49 43 41 34 27 23 20 16 16 15 16 19 19 18 16 13 12 16 17 19 21 25 31 32 31
14 14 27 8 13 48 13 13 12 24 22 16 48 18 16 71 70 73 67 59 58 51 40 33 25 21 20 17 11 6 6 5 7 4 6 8 11 13 16 21 23 29 22 17
15 25 18 17 36 50 15 16 9 37 50 51 18 30 89 78 70 78 81 71 60 56 50 40 31 33 36 28 21 18 13 6 4 1 4 5 9 11 11 10 16 22 22 9
5 6 25 48 22 7 20 42 25 50 51 71 19 58 90 81 85 87 86 77 68 64 49 41 39 37 33 27 24 18 20 16 9 3 3 7 12 9 6 10 14 16 17 21
7 7 38 50 34 49 44 44 51 61 47 45 47 80 91 93 88 87 86 75 68 64 58 47 36 32 30 25 18 14 10 7 4 5 8 17 17 12 13 16 16 17 15 16
5 10 30 50 29 43 42 61 59 50 57 30 23 78 82 90 83 86 79 80 70 60 55 47 36 30 24 19 17 13 13 17 17 14 9 14 20 26 21 24 24 21 15 11
9 8 35 22 46 22 55 64 64 47 47 44 40 27 67 83 82 79 78 76 65 60 54 46 36 27 21 23 23 23 20 13 12 8 14 14 15 14 24 31 26 23 21 21
8 16 14 30 21 24 37 51 51 52 59 44 47 29 38 64 86 87 82 71 64 54 42 32 29 26 23 23 26 22 18 7 13 9 10 11 5 13 27 27 29 21 19 13
11 25 20 30 36 22 31 24 33 48 46 52 32 39 57 52 72 73 73 68 60 50 39 34 28 22 17 19 21 18 18 6 8 7 3 6 12 17 23 24 29 25 17 16
38 24 25 40 38 27 26 28 22 15 7 4 16 53 66 65 41 74 84 76 58 48 40 31 24 20 14 16 17 17 4 7 10 12 13 7 7 11 20 29 34 33 23 20
32 46 45 40 39 40 44 44 31 19 7 18 32 33 38 60 74 62 62 68 63 49 46 38 27 17 16 14 20 13 2 6 6 7 5 6 9 15 24 31 39 42 31 25
41 33 29 26 36 40 41 51 40 21 17 23 40 49 26 54 75 73 76 73 71 60 48 40 23 14 14 21 16 15 6 8 3 3 11 15 20 25 31 37 40 36 27 31
24 19 13 20 32 23 21 19 27 27 21 28 38 44 64 76 78 76 64 45 41 45 38 31 23 17 16 20 21 12 11 7 11 17 20 21 24 28 24 22 25 27 26 29
28 40 22 23 19 26 15 9 26 18 30 16 37 51 64 60 50 46 51 52 44 44 37 31 21 16 17 22 19 12 14 16 15 13 16 20 25 28 28 26 25 29 32 33
18 6 5 11 21 23 20 12 16 35 35 34 59 63 55 55 60 55 50 47 49 49 37 20 20 24 32 23 18 10 8 5 12 19 24 26 28 29 27 26 27 30 32 33
17 16 21 11 23 24 23 30 42 45 36 43 55 52 48 54 58 56 55 58 49 38 38 27 25 32 32 16 3 5 15 25 30 31 33 33 31 29 28 26 26 25 26 28
20 26 34 28 28 30 48 51 51 51 45 43 48 53 52 48 59 56 54 52 41 29 28 27 27 37 30 23 5 13 23 34 41 47 46 41 36 31 29 28 29 32 29 26
12 4 12 41 46 51 44 45 54 53 47 49 46 43 51 53 53 49 39 35 37 36 37 32 27 28 30 16 3 19 29 35 42 48 50 53 51 40 33 32 33 32 32 28
23 34 47 44 39 34 29 37 38 42 44 41 41 43 45 49 47 49 50 41 38 37 35 30 24 26 29 14 5 11 24 33 39 44 50 55 57 52 36 33 32 29 27 23
43 43 35 30 37 38 31 29 28 29 30 32 32 36 43 54 41 33 34 34 35 42 40 35 22 18 33 27 18 3 10 23 29 39 47 51 55 60 53 35 28 26 24 22
15 11 13 22 21 26 22 21 26 29 31 29 30 34 36 49 46 40 38 37 46 43 32 38 24 17 35 23 30 17 7 8 20 27 34 46 52 53 55 47 30 23 18 17
24 22 27 25 15 8 9 15 15 15 21 24 26 27 32 44 36 37 42 39 42 39 28 26 27 21 24 25 36 29 18 5 13 21 25 31 41 50 56 51 39 24 21 23
33 30 27 24 12 10 14 15 24 18 15 25 26 24 33 38 40 40 39 35 38 37 21 19 16 17 29 16 32 40 22 8 7 13 19 27 31 41 50 52 45 32 22 24
Wind_Direction_850mb
245 279 276 278 251 211 202 217 202 252 198 205 180 160 146 138 136 136 138 150 143 150 157 164 157 154 176 165 147 168 193 192 196 203 217 243 247 253 253 259 263 264 271 282
257 279 286 290 286 272 228 217 241 241 264 179 186 146 142 151 157 149 155 162 157 164 169 170 160 194 218 210 187 175 173 179 195 209 220 228 236 249 256 261 281 282 283 286
242 259 301 277 245 270 286 241 204 210 236 181 182 155 157 158 162 156 164 162 161 169 175 180 196 199 192 187 182 196 193 195 209 222 235 235 237 246 259 274 290 291 287 289
273 190 232 267 292 284 281 281 286 267 222 218 167 167 163 167 164 164 170 167 161 172 182 175 176 185 188 215 196 188 194 207 216 228 245 258 268 281 285 292 300 304 303 298
277 268 253 248 256 258 268 282 290 273 242 174 148 151 163 170 172 171 175 179 177 180 179 177 187 188 190 166 184 205 218 218 215 221 241 270 289 289 300 306 314 315 314 307
279 274 270 273 276 256 321 275 24 18 333 228 151 148 182 172 176 172 174 177 166 164 168 172 180 178 167 165 183 184 141 169 170 197 236 269 292 304 315 327 336 336 334 326
307 282 282 329 302 315 298 263 334 2 346 322 191 179 172 169 162 167 169 167 162 159 162 162 168 164 173 177 187 192 192 170 197 276 269 327 315 314 324 327 340 339 353 353
195 208 260 11 22 8 314 311 335 297 315 329 221 170 159 158 158 159 159 159 158 151 149 153 167 185 188 191 185 180 177 182 188 182 324 357 348 341 358 321 325 336 1 9
167 274 313 307 305 323 349 336 349 2 335 313 153 149 152 150 151 159 160 158 159 158 155 160 165 183 190 186 181 173 178 182 159 106 10 12 11 355 336 341 355 5 13 25
48 349 276 303 323 296 337 342 329 334 12 351 149 150 151 154 153 152 154 153 157 161 166 165 178 190 189 167 149 139 106 92 83 57 32 21 356 354 350 350 350 356 2 354
211 314 320 337 6 331 296 284 327 317 353 15 332 187 153 151 147 154 153 155 163 164 164 167 178 173 161 150 139 124 105 91 100 53 16 7 8 360 347 348 344 357 1 358
245 203 215 269 306 329 251 250 286 328 320 346 338 257 181 139 154 153 152 155 155 156 158 164 166 161 154 153 158 139 137 129 116 58 81 22 2 349 331 341 342 358 3 353
203 229 257 269 264 300 288 309 295 304 302 323 303 210 171 175 159 153 154 154 152 154 149 150 152 149 150 155 157 145 135 132 215 225 177 345 325 339 330 324 331 324 342 339
276 225 234 244 267 265 278 296 308 283 270 63 309 209 176 167 161 158 156 153 154 158 155 151 147 137 133 147 143 131 93 215 254 264 240 304 356 330 308 316 325 332 334 329
264 252 248 272 281 279 279 279 273 284 257 156 88 75 148 158 167 166 154 154 150 150 152 146 149 154 165 146 137 131 313 293 321 18 71 287 282 289 294 304 311 319 315 318
267 269 247 261 283 291 296 262 251 243 228 227 168 154 155 172 157 155 150 147 147 153 157 151 147 166 168 142 118 105 89 76 76 186 236 269 281 290 299 306 312 319 329 319
293 291 287 316 311 308 301 286 270 248 224 152 153 163 171 169 158 148 148 155 170 161 153 149 147 173 151 158 135 110 154 191 240 260 280 297 306 305 307 310 323 325 324 318
277 288 273 271 276 270 283 251 176 201 204 173 161 176 171 166 161 150 141 142 147 147 158 156 145 149 134 130 146 175 239 258 283 308 329 338 335 329 324 326 320 320 318 316
307 278 276 252 259 260 287 228 229 209 191 169 172 177 173 175 157 149 154 160 157 155 154 167 164 146 140 136 156 200 242 317 4 8 6 6 359 354 350 344 337 328 323 320
279 298 323 291 244 257 250 198 164 163 174 194 185 170 171 164 159 161 168 169 171 167 154 168 154 136 135 131 206 89 70 55 44 33 26 18 9 3 358 349 339 330 327 324
283 274 287 230 196 197 152 155 153 151 149 150 159 166 162 162 165 163 164 161 155 158 165 171 147 134 126 154 161 58 67 52 46 42 36 25 16 9 6 3 355 343 336 332
237 247 91 175 179 166 152 147 153 148 150 147 157 162 162 164 164 167 169 167 164 172 164 147 138 146 151 174 53 52 54 49 45 41 37 31 24 17 11 4 0 351 345 341
109 95 93 119 138 147 116 136 146 151 151 152 152 163 171 168 171 165 161 171 170 156 159 155 172 165 163 168 129 56 40 40 37 36 35 31 25 21 15 7 2 3 6 5
109 108 81 85 114 131 130 130 135 141 146 159 168 167 171 172 165 173 172 159 165 170 171 178 175 154 169 174 188 224 18 39 31 27 32 30 25 22 18 14 6 2 3 7
149 95 74 82 98 104 114 131 148 157 157 161 168 166 168 175 176 161 163 158 170 179 175 188 201 204 188 169 205 229 256 29 27 21 26 28 25 21 17 14 14 8 358 345
104 136 138 132 133 146 149 134 129 162 175 176 176 180 183 185 180 173 172 175 178 193 193 194 199 195 191 183 214 226 235 298 10 10 11 13 22 19 18 13 11 15 358 346
77 87 104 123 165 109 125 142 168 164 167 174 170 178 183 181 171 172 174 187 185 177 173 192 185 176 170 188 218 225 232 241 337 4 352 356 9 19 22 27 30 33 14 13